[[{"header":{"parameterUnit":"m.s-1","parameterCategory":1,"la1":30.2991,"la2":30.254,"lo1":-89.0895,"lo2":-89.0444,"dy":0.0017,"dx":0.0017,"nx":28,"ny":28,"refTime":"2025-03-26T03:00:00:Z","depth":0,"parameterNumber":2,"parameterNumberName":"U-component_of_WINDS"},"data":[0,0,0,0,0,0,0,0,0,0,0,0,0,0,0,0,0,0,0,0,0,0,0,0,0,0,0,0,0,0,0,0,0,0,0,0,0,0,0,0,0,0,0,0,0,0,0,0,0,0,0,0,0,0,0,0,0,0,0.5775,0.5775,0,0.579,0.579,0.579,0.5797,0.5797,0.5797,0.5797,0.5812,0.5812,0.5812,0,0,0,0,0,0,0,0,0,0,0,0,0,0.5753,0.5753,0.5775,0.5775,0.5775,0.579,0.579,0.579,0.5797,0.5797,0.5797,0.5797,0.5812,0.5812,0.5812,0,0,0,0,0,0,0,0,0,0,0,0,0,0.5764,0.5753,0.5775,0.5781,0.5781,0.579,0.579,0.579,0.5797,0.5797,0.5797,0.5797,0.5811,0.5812,0.5813,0.5816,0,0,0.5814,0.5815,0,0,0,0,0,0,0,0,0.5764,0.5765,0.578,0.578,0.5781,0.5792,0.5788,0.5799,0.5797,0.5791,0.5797,0.5797,0.5805,0.5806,0.5809,0.5817,0.5818,0.5814,0.5815,0.5815,0.5815,0,0,0,0,0,0,0,0.5763,0.5765,0.5781,0.578,0.5781,0.5782,0.5784,0.579,0.5798,0.5792,0.5792,0.5794,0.5805,0.5808,0.5809,0.5818,0.5814,0.5815,0.5815,0.5815,0.5831,0.5831,0,0,0,0,0,0,0.5761,0.5764,0.578,0.5781,0.5772,0.5783,0.5785,0.5788,0.5798,0.5799,0.5794,0.5794,0.5807,0.5809,0.581,0.5816,0.5815,0.5816,0.5816,0.5831,0.5831,0.5831,0,0,0,0,0,0,0.5761,0.5763,0.578,0.5773,0.5775,0.5783,0.5787,0.5789,0.5792,0.58,0.5801,0.5796,0.5807,0.5809,0.5815,0.5816,0.5816,0.5816,0.5831,0.5831,0.5831,0.5827,0,0,0,0,0,0,0.576,0.5762,0.5764,0.5773,0.5775,0.5785,0.5787,0.5789,0.5793,0.5793,0.5801,0.5803,0.5807,0.5814,0.5816,0.5817,0.5817,0.5831,0.5831,0.5831,0.5827,0.5827,0.5827,0,0,0,0,0,0.5759,0.5761,0.5764,0.5766,0.5777,0.5785,0.5786,0.5792,0.5793,0.5794,0.58,0.5803,0.5816,0.5815,0.5816,0.5818,0.5831,0.5831,0.5831,0.5827,0.5827,0.5827,0,0,0,0,0,0,0.5751,0.5763,0.5765,0.5771,0.5777,0.5786,0.5788,0.5791,0.5797,0.5797,0.5804,0.5806,0.5811,0.5815,0.5814,0.5823,0.5824,0.5824,0.582,0.582,0.582,0.5818,0.5817,0,0,0,0,0,0.5751,0.5756,0.5765,0.5769,0.5772,0.5779,0.5783,0.5787,0.5793,0.5796,0.5802,0.5808,0.5813,0.5817,0.5822,0.5828,0.583,0.583,0.583,0.5829,0.583,0.5834,0.5834,0.5832,0.5832,0.5832,0,0,0.5748,0.5755,0.5758,0.5767,0.5773,0.5778,0.5781,0.5787,0.5791,0.5796,0.5803,0.5807,0.5815,0.5821,0.5823,0.5824,0.5831,0.583,0.5829,0.583,0.5834,0.5834,0.5834,0.5832,0.5832,0.5832,0,0,0.5747,0.5753,0.5757,0.5762,0.577,0.5776,0.5777,0.5786,0.5789,0.5796,0.5801,0.5806,0.5815,0.582,0.5824,0.5827,0.583,0.5829,0.5828,0.5832,0.5832,0.5832,0.5833,0.5834,0.5829,0.5829,0.5829,0,0.5743,0.5751,0.5758,0.5764,0.5768,0.5774,0.5779,0.5784,0.5793,0.5796,0.5797,0.581,0.5815,0.5823,0.5824,0.5827,0.5828,0.5827,0.5831,0.5831,0.5832,0.5833,0.5833,0.5829,0.5829,0.5829,0.5829,0,0.5747,0.5752,0.5755,0.5764,0.5769,0.5774,0.5782,0.5786,0.579,0.5795,0.5803,0.5809,0.5817,0.5819,0.5823,0.5828,0.5828,0.583,0.5831,0.5832,0.5833,0.5833,0.5828,0.5828,0.5829,0.5829,0,0,0.574,0.5754,0.5755,0.576,0.577,0.5775,0.5781,0.5789,0.5792,0.5799,0.5804,0.5813,0.5815,0.5819,0.5824,0.5827,0.583,0.5829,0.5829,0.5829,0.5836,0.5835,0.5835,0.5832,0.5832,0.5832,0.5836,0,0.574,0.575,0.5757,0.5765,0.5771,0.5778,0.5783,0.579,0.5795,0.5801,0.5807,0.5813,0.5816,0.5819,0.5822,0.5829,0.5831,0.5828,0.5837,0.5837,0.5835,0.5836,0.5834,0.5837,0.5836,0.5836,0.5837,0,0.5741,0.5749,0.5757,0.5768,0.5771,0.5775,0.5783,0.5789,0.5797,0.5801,0.5807,0.5812,0.5819,0.582,0.5829,0.5827,0.5831,0.5835,0.5835,0.5836,0.5837,0.5837,0.5838,0.5838,0.5837,0.5837,0.5837,0,0.5736,0.5748,0.5755,0.5759,0.5771,0.5774,0.578,0.5788,0.5793,0.5801,0.5804,0.5812,0.5816,0.5823,0.583,0.583,0.5839,0.584,0.5842,0.5842,0.5843,0.5843,0.5845,0.5846,0.5846,0.5846,0.5846,0,0.5735,0.574,0.5753,0.5757,0.5763,0.5771,0.5777,0.5783,0.5791,0.5797,0.5803,0.5808,0.5817,0.5824,0.583,0.5837,0.5839,0.5842,0.5844,0.5842,0.5841,0.5844,0.5844,0.5846,0.5846,0.5846,0.5846,0,0.573,0.5738,0.5746,0.5758,0.5761,0.5765,0.5776,0.578,0.5787,0.5794,0.5796,0.5806,0.5814,0.5822,0.5833,0.5837,0.5844,0.5846,0.5841,0.5842,0.5844,0.5843,0.5848,0.5849,0.5849,0.5849,0.5849,0,0.5729,0.5733,0.5746,0.575,0.5756,0.5763,0.5768,0.5777,0.5782,0.5793,0.5796,0.5805,0.5812,0.5825,0.5833,0.5842,0.5844,0.5845,0.5845,0.5843,0.5844,0.5844,0.5845,0.5845,0.5845,0.5844,0.5844,0,0.5726,0.5731,0.5738,0.5747,0.5754,0.5761,0.5769,0.5772,0.5783,0.5789,0.5797,0.5803,0.5815,0.5824,0.5833,0.5839,0.5844,0.5845,0.5845,0.5843,0.584,0.5842,0.5841,0.5844,0.5844,0.5844,0.5844,0.5844,0.5723,0.5727,0.5737,0.5746,0.5753,0.5761,0.5766,0.5773,0.5781,0.5791,0.5796,0.5805,0.5815,0.5828,0.5834,0.5841,0.5842,0.5844,0.5844,0.5844,0.5844,0.584,0.5843,0.5843,0.5843,0.5843,0.5843,0,0.5721,0.5728,0.5736,0.5747,0.5754,0.5759,0.5768,0.5773,0.5781,0.579,0.5797,0.5808,0.5817,0.5826,0.5836,0.584,0.5842,0.5842,0.5842,0.5843,0.5842,0.5841,0.584,0.584,0.584,0.584,0.584,0.584,0.5721,0.5729,0.5735,0.5746,0.5753,0.5763,0.5768,0.5775,0.5782,0.5794,0.5801,0.5808,0.5817,0.5827,0.5836,0.5839,0.5842,0.5841,0.5844,0.5843,0.5843,0.5843,0.5842,0.5842,0.5842,0.5845,0.5845,0.5845]},{"header":{"parameterUnit":"m.s-1","parameterCategory":1,"la1":30.2991,"la2":30.254,"lo1":-89.0895,"lo2":-89.0444,"dy":0.0017,"dx":0.0017,"nx":28,"ny":28,"refTime":"2025-03-26T03:00:00:Z","depth":0,"parameterNumber":3,"parameterNumberName":"V-component_of_WINDS"},"data":[0,0,0,0,0,0,0,0,0,0,0,0,0,0,0,0,0,0,0,0,0,0,0,0,0,0,0,0,0,0,0,0,0,0,0,0,0,0,0,0,0,0,0,0,0,0,0,0,0,0,0,0,0,0,0,0,0,0,-1.7126,-1.7127,0,-1.7142,-1.7142,-1.7142,-1.7128,-1.7127,-1.7127,-1.7126,-1.714,-1.7141,-1.7142,0,0,0,0,0,0,0,0,0,0,0,0,0,-1.7083,-1.7084,-1.7126,-1.7127,-1.7127,-1.7142,-1.7142,-1.7142,-1.7128,-1.7127,-1.7127,-1.7126,-1.714,-1.7141,-1.7142,0,0,0,0,0,0,0,0,0,0,0,0,0,-1.7101,-1.7084,-1.7126,-1.7121,-1.7121,-1.7142,-1.7142,-1.7143,-1.7128,-1.7127,-1.7126,-1.7126,-1.714,-1.7141,-1.7142,-1.7168,0,0,-1.7146,-1.7147,0,0,0,0,0,0,0,0,-1.71,-1.7102,-1.7122,-1.7122,-1.7122,-1.7132,-1.7132,-1.7151,-1.7128,-1.7125,-1.7126,-1.7125,-1.7138,-1.714,-1.7144,-1.7169,-1.7169,-1.7147,-1.7147,-1.7148,-1.7148,0,0,0,0,0,0,0,-1.7098,-1.7101,-1.7132,-1.7122,-1.7122,-1.7118,-1.712,-1.7136,-1.7136,-1.7126,-1.7125,-1.7127,-1.7138,-1.7143,-1.7145,-1.717,-1.7146,-1.7148,-1.7149,-1.7149,-1.7218,-1.7219,0,0,0,0,0,0,-1.7098,-1.71,-1.7132,-1.7133,-1.7108,-1.712,-1.7121,-1.713,-1.7136,-1.7136,-1.7128,-1.7126,-1.7141,-1.7143,-1.7145,-1.7177,-1.7148,-1.7149,-1.715,-1.7217,-1.7218,-1.7219,0,0,0,0,0,0,-1.7097,-1.7101,-1.7131,-1.7117,-1.712,-1.7121,-1.7131,-1.713,-1.7136,-1.7138,-1.7138,-1.7133,-1.714,-1.7143,-1.7163,-1.7177,-1.715,-1.7151,-1.7215,-1.7217,-1.7218,-1.724,0,0,0,0,0,0,-1.7096,-1.7101,-1.711,-1.7117,-1.7121,-1.7149,-1.7132,-1.7131,-1.7138,-1.7136,-1.7143,-1.7143,-1.714,-1.7161,-1.7164,-1.7178,-1.7152,-1.7214,-1.7216,-1.7218,-1.7238,-1.7242,-1.7245,0,0,0,0,0,-1.7094,-1.7115,-1.7111,-1.7115,-1.7133,-1.715,-1.7152,-1.715,-1.7139,-1.7149,-1.7151,-1.7142,-1.7175,-1.7163,-1.7167,-1.7181,-1.7213,-1.7216,-1.7218,-1.7236,-1.7241,-1.7245,0,0,0,0,0,0,-1.7109,-1.7116,-1.7111,-1.7135,-1.7142,-1.7148,-1.716,-1.7155,-1.7164,-1.7162,-1.7158,-1.7159,-1.718,-1.7183,-1.717,-1.7208,-1.7192,-1.7196,-1.7205,-1.721,-1.7213,-1.7212,-1.7153,0,0,0,0,0,-1.7115,-1.7128,-1.7133,-1.7154,-1.7158,-1.7158,-1.7165,-1.7163,-1.717,-1.7173,-1.7176,-1.7183,-1.7195,-1.7202,-1.7213,-1.7238,-1.724,-1.725,-1.7254,-1.7257,-1.7259,-1.7274,-1.7279,-1.7226,-1.7226,-1.7226,0,0,-1.7127,-1.7133,-1.7141,-1.7157,-1.7162,-1.7176,-1.7161,-1.7176,-1.7186,-1.7175,-1.7194,-1.7197,-1.7204,-1.7227,-1.7237,-1.723,-1.7275,-1.726,-1.7262,-1.7263,-1.7277,-1.7282,-1.7286,-1.7228,-1.7228,-1.7227,0,0,-1.7157,-1.7162,-1.718,-1.7187,-1.7196,-1.7196,-1.7201,-1.7208,-1.7209,-1.7229,-1.7221,-1.7233,-1.7254,-1.726,-1.7265,-1.73,-1.7293,-1.7304,-1.7323,-1.7337,-1.7341,-1.7345,-1.7358,-1.7362,-1.7306,-1.7306,-1.7306,0,-1.717,-1.7192,-1.719,-1.7206,-1.7214,-1.7206,-1.7224,-1.723,-1.7242,-1.7247,-1.7239,-1.7265,-1.7269,-1.7294,-1.7303,-1.7308,-1.7313,-1.7303,-1.7341,-1.7344,-1.7348,-1.736,-1.7365,-1.7308,-1.7307,-1.7307,-1.7307,0,-1.7209,-1.7224,-1.7237,-1.7251,-1.726,-1.7277,-1.7278,-1.7287,-1.7284,-1.7286,-1.7307,-1.7312,-1.7324,-1.733,-1.7327,-1.7355,-1.735,-1.7342,-1.7326,-1.7354,-1.7366,-1.737,-1.7309,-1.7309,-1.7309,-1.7308,0,0,-1.7246,-1.726,-1.7265,-1.7272,-1.7282,-1.7294,-1.7311,-1.7324,-1.7333,-1.7342,-1.7356,-1.7375,-1.7367,-1.7374,-1.7372,-1.7384,-1.7412,-1.7374,-1.7374,-1.7381,-1.7445,-1.7451,-1.7457,-1.7408,-1.7409,-1.7409,-1.7444,0,-1.7277,-1.7308,-1.7308,-1.7336,-1.7351,-1.7344,-1.736,-1.7368,-1.737,-1.7383,-1.7385,-1.7398,-1.7387,-1.7391,-1.7404,-1.7406,-1.7425,-1.7404,-1.7421,-1.7422,-1.742,-1.7462,-1.7469,-1.7501,-1.7448,-1.7449,-1.745,0,-1.7316,-1.7328,-1.7359,-1.7369,-1.7375,-1.7389,-1.7402,-1.7414,-1.7423,-1.7424,-1.7433,-1.7429,-1.7447,-1.7432,-1.7456,-1.7442,-1.7449,-1.7452,-1.7453,-1.7454,-1.7437,-1.7465,-1.7512,-1.7517,-1.7457,-1.7456,-1.7456,0,-1.7341,-1.7365,-1.7386,-1.7392,-1.7404,-1.7415,-1.742,-1.7429,-1.7437,-1.7449,-1.7455,-1.7468,-1.7475,-1.7485,-1.7485,-1.7473,-1.751,-1.7494,-1.7511,-1.7511,-1.7519,-1.7518,-1.7567,-1.7523,-1.7523,-1.7523,-1.7523,0,-1.7375,-1.7394,-1.7398,-1.7411,-1.7433,-1.7433,-1.7454,-1.7459,-1.7467,-1.7481,-1.7476,-1.7489,-1.7488,-1.7501,-1.7501,-1.7522,-1.7525,-1.7527,-1.7526,-1.7527,-1.7527,-1.7532,-1.7529,-1.7525,-1.7524,-1.7524,-1.7524,0,-1.7406,-1.7409,-1.7433,-1.7444,-1.7447,-1.7462,-1.7471,-1.7484,-1.7487,-1.7505,-1.7509,-1.7513,-1.7529,-1.753,-1.7548,-1.7548,-1.7574,-1.7571,-1.7571,-1.757,-1.7587,-1.7586,-1.7641,-1.7648,-1.7599,-1.76,-1.76,0,-1.7427,-1.7442,-1.7455,-1.7465,-1.7471,-1.7487,-1.7496,-1.7497,-1.7507,-1.7521,-1.7532,-1.7547,-1.756,-1.7585,-1.759,-1.7604,-1.7601,-1.762,-1.7603,-1.7604,-1.7602,-1.7601,-1.7603,-1.7622,-1.7623,-1.7623,-1.7624,0,-1.7465,-1.7467,-1.7481,-1.7497,-1.7509,-1.7521,-1.7532,-1.754,-1.7542,-1.7554,-1.7571,-1.7581,-1.76,-1.7616,-1.763,-1.7635,-1.763,-1.7629,-1.7634,-1.7635,-1.7634,-1.7635,-1.758,-1.7628,-1.7627,-1.7627,-1.7627,-1.7627,-1.7492,-1.7506,-1.7518,-1.7534,-1.7543,-1.7555,-1.7568,-1.7573,-1.7588,-1.7604,-1.7604,-1.7623,-1.7633,-1.7651,-1.7658,-1.7672,-1.7666,-1.7673,-1.7674,-1.7676,-1.7678,-1.7632,-1.7675,-1.7675,-1.7675,-1.7675,-1.7674,0,-1.753,-1.7538,-1.7554,-1.7571,-1.7584,-1.758,-1.7593,-1.7604,-1.7621,-1.7631,-1.7645,-1.7665,-1.768,-1.7687,-1.7702,-1.7712,-1.7711,-1.7716,-1.7716,-1.7717,-1.7683,-1.7677,-1.7718,-1.7718,-1.7718,-1.7718,-1.7718,-1.7718,-1.7551,-1.7575,-1.7578,-1.7606,-1.7614,-1.7633,-1.7641,-1.7651,-1.766,-1.7683,-1.7697,-1.7701,-1.7711,-1.7727,-1.7741,-1.7743,-1.7749,-1.7755,-1.7756,-1.7724,-1.7719,-1.7715,-1.771,-1.7757,-1.7757,-1.7789,-1.7789,-1.779]}]]